Terug naar catalogus

STARLINK-6305

ActiefCommunicatieVLEO
NORAD 56394·PAYLOAD·🇺🇸 United States

Gelanceerd May 4, 2023 vanaf Cape Canaveral Space Force Station

Loading…

Volgende Passages (komende 24 uur)

TLE

VersSource: CelesTrak SupGP

Epoch: Sep 14, 2026, 20:34 UTC

1 56394C 23061W   26257.85743056  .00007241  00000+0  26231-3 0  2576
2 56394  43.0023 198.3918 0001277 267.4979 293.2606 15.27570115    14

Volg STARLINK-6305 in realtime met AllMySat

Download on the App Store